This is the latest recevied weather packets stored in our database for station/object W7TJC. If no packets are shown the sender has not sent any weather packets the latest 1 day(s).
| Time | Temp. | Humidity | Pressure | Rain* | Wind** | Luminosity | Snow |
|---|---|---|---|---|---|---|---|
| 1778012518 | 14.44° C | 80% | 1017.8 hPa | 0 mm | 0 m/s | 85 W/m² | - |
| 1778012214 | 14.44° C | 80% | 1018 hPa | 0 mm | 0 m/s | 78 W/m² | - |
| 1778011913 | 14.44° C | 80% | 1017.9 hPa | 0 mm | 0 m/s | 94 W/m² | - |
| 1778011610 | 14.44° C | 81% | 1017.8 hPa | 0 mm | 0.89 m/s, 222° | 78 W/m² | - |
| 1778011307 | 14.44° C | 80% | 1017.6 hPa | 0 mm | 1.34 m/s, 206° | 72 W/m² | - |
| 1778011003 | 14.44° C | 81% | 1017.8 hPa | 0 mm | 0 m/s | 70 W/m² | - |
| 1778010700 | 14.44° C | 81% | 1017.6 hPa | 0 mm | 0 m/s | 65 W/m² | - |
| 1778010398 | 14.44° C | 81% | 1017.6 hPa | 0 mm | 0 m/s | 70 W/m² | - |
| 1778010094 | 13.89° C | 81% | 1017.9 hPa | 0 mm | 0 m/s | 65 W/m² | - |
| 1778009790 | 13.89° C | 81% | 1017.8 hPa | 0 mm | 0 m/s | 56 W/m² | - |
| 1778009487 | 13.89° C | 81% | 1017.9 hPa | 0 mm | 0.45 m/s, 204° | 55 W/m² | - |
| 1778009186 | 13.89° C | 81% | 1017.7 hPa | 0 mm | 0 m/s | 60 W/m² | - |
| 1778008883 | 13.89° C | 81% | 1017.8 hPa | 0 mm | 0 m/s | 66 W/m² | - |
| 1778008581 | 13.89° C | 81% | 1017.7 hPa | 0 mm | 0.45 m/s, 199° | 66 W/m² | - |
| 1778008279 | 14.44° C | 81% | 1017.5 hPa | 0 mm | 0 m/s | 61 W/m² | - |
| 1778007975 | 13.89° C | 81% | 1017.4 hPa | 0 mm | 0.45 m/s, 225° | 62 W/m² | - |
| 1778007670 | 14.44° C | 81% | 1017.8 hPa | 0 mm | 0 m/s | 59 W/m² | - |
| 1778007367 | 13.89° C | 81% | 1017.7 hPa | 0 mm | 0 m/s | 66 W/m² | - |
| 1778007063 | 13.89° C | 81% | 1017.6 hPa | 0 mm | 0.45 m/s, 118° | 59 W/m² | - |
| 1778006760 | 13.89° C | 81% | 1017.8 hPa | 0 mm | 0 m/s | 60 W/m² | - |
| 1778006457 | 13.89° C | 81% | 1017.7 hPa | 0 mm | 0 m/s | 61 W/m² | - |
| 1778006153 | 13.89° C | 80% | 1017.3 hPa | 0 mm | 0.45 m/s, 194° | 62 W/m² | - |
| 1778005851 | 13.89° C | 81% | 1017.5 hPa | 0 mm | 0 m/s | 60 W/m² | - |
| 1778005547 | 13.89° C | 81% | 1017.7 hPa | 0 mm | 0 m/s | 59 W/m² | - |
| 1778005244 | 13.89° C | 81% | 1017.6 hPa | 0 mm | 0 m/s | 59 W/m² | - |
* Rain latest hour (hover to see other rain measurements)
** Current wind speed in m/s (hover to see current wind gust speed)